Probability
0 0 0 0 0 0 0 0 0 0 0 0 0 0 0 0 0 0 0 0 0 0 0 0 0 0 0 0 0 0 0 0 0 0 3 0 0 0
0 0 0 0 0 0 0 0 0 0 0 0 0 0 0 0 0 0 0 0 0 0 0 0 0 0 0 0 0 0 0 0 0 0 0 0 0 0
0 0 0 0 0 0 0 0 0 0 0 0 0 0 0 0 0 0 0 0 0 0 0 0 0 0 0 0 0 0 0 0 0 0 0 0 0 0
0 0 0 0 0 0 0 0 0 0 0 0 0 0 0 0 0 0 0 0 0 0 0 0 0 0 0 0 0 0 0 0 0 0 0 0 0 0
0 0 0 0 0 0 0 0 0 0 0 0 0 0 0 0 0 0 0 0 0 0 0 0 0 0 0 0 0 0 0 0 0 0 0 0 0 0
0 0 0 0 0 0 0 0 0 0 0 0 0 0 0 0 0 0 0 0 0 0 0 0 0 0 0 0 0 0 0 0 0 0 0 0 0 0
0 0 0 0 0 0 0 0 0 0 0 0 0 0 0 0 0 0 0 0 0 0 0 0 0 0 0 0 0 0 0 0 0 0 0 0 0 0
0 0 0 0 0 0 0 0 0 0 0 0 0 0 0 0 0 0 0 0 0 0 0 0 0 0 0 0 0 0 0 0 0 0 0 0 0 0
0 0 0 0 0 0 0 0 0 0 0 0 0 0 0 0 0 0 0 0 0 0 0 0 0 0 0 0 0 0 0 0 0 0 0 0 0 0
0 0 0 0 0 0 0 0 0 0 0 0 0 0 0 0 0 0 0 0 0 0 0 0 0 0 0 0 0 0 0 0 0 0 0 0 0 0
0 0 0 0 0 0 0 0 0 0 0 0 0 0 0 0 0 0 0 0 0 0 0 0 0 0 0 0 0 0 0 0 0 0 0 0 0 0
0 0 0 0 0 0 0 0 0 0 0 0 0 0 0 0 0 0 0 0 0 0 0 0 0 0 0 0 0 0 0 0 0 0 0 0 0 0
0 0 0 0 0 0 0 0 0 0 0 0 0 0 0 0 0 0 0 0 0 0 0 0 0 0 0 0 0 0 0 0 0 0 0 0 0 0
0 0 0 0 0 0 0 0 0 0 0 0 0 0 0 0 0 0 0 0 0 0 0 0 0 0 0 0 0 0 0 0 0 0 0 0 0 0
0 0 0 0 0 0 0 0 0 0 0 0 0 0 0 0 0 0 0 0 0 0 0 0 0 0 0 0 0 0 0 0 0 0 0 0 0 0
0 0 0 0 0 0 0 0 0 0 0 0 0 0 0 0 0 0 0 0 0 0 0 0 0 0 0 0 0 0 0 0 0 0 0 0 0 0
0 0 0 0 0 0 0 0 0 0 0 0 0 0 0 0 0 0 0 0 0 0 0 0 0 0 0 0 0 0 0 0 0 0 0 0 0 0
0 0 0 0 0 0 0 0 0 0 0 0 0 0 0 0 0 0 0 0 0 0 0 0 0 0 0 0 0 0 0 0 0 0 0 0 0 0
0 0 0 0 0 0 0 0 0 0 0 0 0 0 0 0 0 0 0 0 0 0 0 0 0 0 0 0 0 0 0 0 0 0 0 0 0 0
0 0 0 0 0 0 0 0 0 0 0 0 0 0 0 0 0 0 0 0 0 0 0 0 0 0 0 0 0 0 0 0 0 0 0 0 0 0
0 0 0 0 0 0 0 0 0 0 0 0 0 0 0 0 0 0 0 0 0 0 0 0 0 0 0 0 0 0 0 0 0 0 0 0 0 0
0 0 0 0 0 0 0 0 0 0 0 0 0 0 0 0 0 0 0 0 0 0 0 0 0 0 0 0 0 0 0 0 0 0 0 0 0 0
0 0 0 0 0 0 0 0 0 0 0 0 0 0 0 0 0 0 0 0 0 0 0 0 0 0 0 0 0 0 0 0 0 0 0 0 0 0
Height
5820 5820 5819 5818 5817 5816 5815 5815 5814 5813 5812 5811 5810 5809 5808 5807 5807 5806 5805 5805 5804 5804 5803 5802 5802 5801 5801 5800 5799 5799 5798 5797 5797 5796 5795 5795 5794 5793
5817 5817 5816 5815 5814 5814 5812 5812 5811 5810 5809 5808 5808 5806 5805 5804 5803 5803 5802 5802 5801 5800 5800 5799 5799 5798 5797 5796 5796 5795 5794 5794 5793 5792 5792 5791 5790 5789
5814 5813 5813 5812 5812 5811 5809 5808 5807 5807 5806 5805 5804 5803 5802 5801 5800 5799 5799 5798 5797 5797 5796 5796 5795 5794 5794 5793 5792 5791 5790 5790 5789 5788 5787 5786 5785 5784
5810 5810 5809 5809 5808 5807 5806 5805 5804 5803 5802 5801 5801 5800 5799 5798 5797 5796 5795 5794 5793 5793 5792 5792 5791 5790 5790 5789 5788 5787 5786 5785 5784 5783 5783 5781 5780 5779
5806 5805 5805 5805 5804 5804 5803 5802 5800 5799 5798 5798 5797 5796 5795 5794 5793 5792 5791 5790 5789 5788 5787 5787 5786 5785 5785 5784 5783 5782 5781 5781 5780 5778 5777 5776 5775 5774
5802 5801 5801 5800 5800 5800 5799 5798 5796 5795 5794 5793 5793 5791 5790 5789 5789 5788 5787 5786 5785 5784 5783 5782 5781 5780 5780 5779 5778 5777 5776 5775 5774 5773 5771 5770 5769 5768
5797 5796 5796 5795 5795 5795 5794 5793 5792 5791 5790 5789 5788 5787 5786 5785 5784 5783 5782 5781 5780 5778 5777 5776 5776 5775 5774 5773 5772 5771 5770 5769 5768 5766 5765 5764 5763 5761
5792 5791 5791 5790 5790 5789 5789 5788 5787 5786 5785 5784 5783 5782 5781 5780 5779 5777 5777 5776 5774 5773 5772 5771 5770 5769 5768 5767 5766 5764 5763 5762 5761 5760 5758 5757 5755 5754
5786 5785 5785 5785 5784 5784 5783 5782 5781 5780 5779 5779 5777 5776 5775 5774 5773 5772 5771 5770 5768 5767 5766 5765 5764 5763 5762 5760 5759 5758 5756 5755 5754 5753 5751 5750 5749 5748
5779 5779 5779 5778 5778 5778 5777 5776 5775 5774 5773 5773 5771 5770 5769 5768 5767 5766 5764 5763 5763 5761 5760 5759 5758 5757 5756 5755 5753 5751 5750 5749 5747 5746 5744 5743 5742 5741
5772 5772 5771 5771 5771 5771 5770 5770 5769 5768 5767 5766 5765 5764 5762 5761 5760 5759 5758 5757 5756 5756 5754 5753 5752 5751 5750 5749 5747 5746 5744 5742 5740 5739 5737 5736 5735 5734
5765 5764 5764 5764 5764 5764 5763 5763 5763 5762 5761 5760 5759 5758 5756 5755 5754 5753 5752 5751 5750 5749 5748 5747 5746 5745 5744 5743 5741 5739 5738 5736 5734 5732 5730 5729 5727 5727
5757 5757 5757 5757 5756 5756 5756 5756 5755 5755 5754 5753 5752 5751 5750 5749 5748 5747 5746 5744 5743 5742 5741 5740 5739 5738 5737 5736 5734 5732 5731 5729 5727 5725 5723 5721 5720 5720
5750 5750 5750 5749 5749 5749 5749 5749 5748 5748 5747 5746 5745 5744 5743 5743 5742 5740 5739 5738 5736 5735 5734 5733 5732 5730 5729 5728 5727 5725 5723 5721 5719 5717 5716 5714 5713 5712
5744 5743 5743 5743 5742 5742 5742 5741 5741 5740 5740 5739 5738 5738 5737 5736 5735 5734 5733 5731 5730 5729 5727 5726 5724 5723 5721 5720 5718 5717 5715 5714 5712 5710 5708 5706 5705 5704
5737 5737 5736 5736 5735 5735 5734 5734 5733 5732 5732 5731 5731 5730 5729 5729 5728 5727 5726 5725 5724 5722 5721 5719 5717 5716 5714 5712 5711 5709 5707 5706 5704 5702 5700 5699 5697 5695
5730 5730 5729 5729 5728 5728 5727 5726 5726 5725 5724 5724 5723 5723 5722 5721 5721 5720 5719 5718 5717 5715 5714 5712 5710 5708 5707 5705 5704 5702 5700 5698 5697 5695 5693 5691 5689 5687
5722 5722 5722 5722 5721 5720 5720 5719 5718 5717 5717 5716 5716 5715 5715 5714 5713 5712 5711 5710 5709 5708 5706 5705 5703 5702 5700 5698 5697 5695 5693 5691 5689 5687 5685 5683 5681 5679
5715 5715 5714 5714 5713 5712 5712 5711 5710 5709 5709 5708 5708 5708 5707 5706 5706 5705 5704 5703 5701 5700 5699 5697 5696 5694 5693 5691 5690 5688 5686 5684 5681 5679 5677 5675 5673 5671
5707 5707 5706 5706 5705 5704 5704 5703 5702 5701 5700 5700 5700 5699 5699 5698 5698 5697 5696 5695 5694 5693 5691 5690 5688 5687 5685 5684 5682 5680 5678 5676 5674 5672 5669 5667 5665 5663
5700 5699 5698 5698 5697 5697 5696 5695 5695 5694 5693 5692 5692 5691 5691 5690 5689 5689 5688 5687 5686 5685 5684 5682 5681 5679 5678 5676 5675 5673 5670 5668 5666 5664 5662 5659 5657 5655
5692 5691 5690 5690 5689 5689 5688 5687 5687 5686 5685 5685 5684 5683 5682 5682 5681 5680 5679 5679 5678 5677 5676 5675 5673 5671 5670 5668 5667 5665 5663 5660 5658 5655 5653 5651 5648 5646
5683 5683 5682 5682 5681 5681 5680 5679 5679 5678 5678 5677 5676 5675 5674 5673 5673 5672 5671 5670 5669 5669 5668 5667 5665 5664 5662 5660 5659 5657 5655 5652 5650 5648 5645 5642 5640 5637
Wind_Speed
11 11 11 11 11 11 12 12 12 12 12 12 12 12 13 13 13 13 13 13 13 13 13 14 13 12 12 12 13 13 14 13 13 13 14 14 14 15
12 12 12 12 12 13 13 13 13 13 13 13 13 13 13 13 13 13 13 13 14 14 13 13 12 12 12 12 13 13 14 14 13 14 15 15 16 16
13 13 13 13 13 13 13 14 14 13 13 13 13 13 13 13 13 13 13 14 14 14 14 13 13 14 14 14 14 14 14 14 15 15 16 16 17 17
15 15 14 15 14 14 14 14 14 14 14 14 14 14 14 14 14 14 15 15 15 15 15 15 15 15 15 15 15 15 15 15 16 17 17 18 18 19
16 16 16 16 15 15 15 15 15 15 15 15 15 15 15 15 15 15 15 15 15 15 16 16 16 16 16 16 16 17 17 17 17 18 18 18 19 20
17 17 17 16 16 16 16 16 16 16 16 16 16 15 16 16 16 16 16 16 16 17 17 17 17 17 17 17 18 19 19 19 19 20 20 20 21 21
18 18 18 18 17 17 17 17 17 17 17 17 17 17 16 16 17 17 17 17 17 18 17 17 18 18 18 19 19 19 20 20 21 21 21 21 21 21
19 19 19 19 18 18 18 18 18 18 18 18 18 18 18 18 18 18 18 18 18 18 18 18 19 19 19 20 20 21 21 21 21 21 21 21 20 20
20 20 20 19 19 19 19 19 19 19 19 19 19 19 18 19 19 19 19 19 19 18 18 18 18 18 19 20 21 21 21 21 21 21 21 21 20 20
22 22 22 21 21 20 20 19 20 20 20 20 20 20 20 20 20 20 20 20 19 18 18 19 19 19 18 19 20 21 21 21 21 22 22 21 21 21
22 22 23 23 22 22 21 20 20 20 20 20 20 21 21 21 20 20 20 20 19 19 19 20 20 19 19 19 20 21 21 21 21 22 22 22 22 22
22 22 22 23 23 23 22 21 21 21 21 21 21 22 22 21 20 20 21 21 21 20 20 20 20 21 21 21 21 21 22 22 22 23 23 22 22 23
22 22 22 22 22 23 23 23 22 22 22 22 22 22 21 21 20 20 21 21 21 21 21 21 22 22 22 22 22 22 22 22 23 24 24 23 23 23
21 21 21 22 22 23 23 24 24 23 22 22 22 21 21 21 20 20 21 21 21 21 21 22 22 23 23 22 22 22 23 23 24 25 25 24 24 24
22 22 22 22 22 23 23 24 24 23 23 23 22 22 21 22 22 21 21 21 21 22 22 22 23 23 23 23 23 23 23 23 24 24 24 24 24 24
22 22 23 23 23 23 23 23 24 24 24 23 23 23 22 22 22 22 22 22 22 22 23 23 23 23 23 23 23 23 22 23 23 23 24 25 25 25
22 23 23 23 23 23 23 23 24 24 24 23 23 23 23 23 23 22 22 22 22 22 23 22 23 23 24 24 24 23 23 23 23 24 24 24 25 25
23 23 24 24 24 24 23 24 24 24 24 23 23 23 23 23 23 23 24 24 24 24 24 23 23 24 24 24 24 24 24 25 24 24 24 24 25 25
24 24 24 24 24 23 23 24 23 24 24 23 23 23 23 23 24 23 24 24 24 24 24 24 24 24 24 24 24 25 25 25 25 24 24 25 25 26
24 24 24 24 24 24 23 23 23 22 23 23 23 24 24 24 24 23 24 24 24 24 24 24 24 24 24 24 24 24 24 24 25 25 25 25 26 26
24 24 24 24 24 24 24 24 23 23 23 23 23 24 25 25 25 24 24 24 24 24 24 23 23 24 24 24 24 24 24 25 25 25 25 25 25 26
24 24 24 25 25 25 24 24 23 23 23 23 23 24 24 25 25 26 26 25 25 25 25 25 25 25 25 25 25 25 25 25 25 25 26 26 26 27
23 24 24 24 24 24 24 24 24 23 24 24 24 24 24 25 25 25 26 25 25 26 25 25 25 25 25 25 25 25 25 26 26 26 26 27 27 27
Wind_Direction
297 297 299 300 302 306 308 308 307 307 307 308 309 307 305 303 298 296 294 294 292 294 294 293 291 291 293 296 296 295 296 295 293 294 295 293 290 289
293 294 294 298 302 303 306 307 305 303 303 305 307 305 306 303 299 296 295 295 295 294 296 296 295 295 296 298 301 301 300 295 292 294 296 296 293 290
288 289 290 293 297 299 301 303 303 303 301 302 303 304 304 303 301 299 297 295 293 293 292 289 292 291 292 294 295 296 297 293 293 294 295 296 297 294
284 284 286 289 292 295 298 300 300 300 300 299 298 299 300 300 298 298 297 296 293 291 287 288 289 289 289 291 292 293 294 295 294 293 293 295 296 295
283 283 284 286 288 292 294 297 297 296 295 295 294 293 295 296 294 295 296 295 295 293 290 289 289 289 289 290 291 293 293 294 294 295 295 295 296 296
285 284 285 284 286 289 292 295 295 294 291 291 291 293 294 295 294 294 294 293 294 294 293 290 287 287 289 290 291 291 290 291 292 294 294 294 294 295
285 284 284 284 285 287 290 293 294 293 291 290 291 293 295 295 294 293 293 294 293 293 292 291 288 287 287 289 290 290 290 291 293 293 293 292 291 291
282 282 281 281 284 286 288 290 292 292 292 291 292 291 292 293 292 292 293 294 294 293 293 292 291 289 288 289 290 291 291 291 292 293 293 292 291 291
280 280 279 279 281 284 286 288 289 290 291 290 290 291 292 293 292 292 294 295 295 294 293 295 293 292 290 290 290 292 293 293 293 293 294 292 292 291
279 279 278 276 278 281 282 286 287 288 288 288 288 289 290 292 293 293 294 294 294 293 293 294 294 292 292 293 292 293 294 294 293 292 292 290 290 290
279 279 278 276 276 277 280 282 284 286 286 286 287 289 290 290 291 291 292 293 292 293 293 294 294 294 294 294 294 293 292 293 293 293 291 290 289 289
278 279 278 277 277 276 278 280 281 284 286 286 287 289 289 288 287 288 290 292 292 292 293 293 293 294 295 295 294 294 293 293 294 293 292 291 289 289
279 278 279 278 278 277 278 280 281 282 284 286 287 289 289 287 286 287 289 290 291 290 291 292 293 294 294 294 293 293 292 293 293 292 292 292 291 290
280 278 279 279 279 278 278 280 281 281 282 285 286 287 286 286 285 285 287 290 290 290 292 293 294 296 296 295 295 293 291 292 293 292 290 290 290 289
280 279 279 280 281 281 280 281 282 281 281 283 285 284 283 284 285 285 286 289 289 291 293 294 295 297 298 299 298 295 293 292 293 294 293 291 290 288
280 279 280 280 280 282 283 282 282 282 282 283 283 283 282 283 283 282 284 286 288 290 292 293 294 296 297 297 299 298 296 295 295 294 293 292 292 290
281 279 279 281 282 283 284 284 284 283 282 282 281 281 282 283 285 285 286 287 288 290 291 293 294 295 296 296 296 296 297 298 298 297 296 295 294 292
280 280 280 281 282 283 284 284 285 285 283 282 279 279 281 283 285 286 286 287 288 289 290 290 291 292 293 295 295 295 296 297 298 299 297 296 296 295
280 281 281 281 281 283 284 286 286 285 283 280 278 278 280 281 283 285 285 285 286 287 288 290 291 293 294 294 294 296 296 296 297 298 299 297 297 296
281 281 281 280 281 282 284 286 286 285 283 280 278 278 280 281 282 283 285 284 284 286 288 289 291 294 295 295 294 295 297 298 299 299 300 301 300 298
280 280 279 279 279 280 282 284 284 284 282 281 279 279 279 279 280 282 284 284 284 285 287 289 291 294 295 295 295 296 297 298 300 299 299 300 300 299
280 280 278 278 279 279 280 281 282 283 281 281 280 281 282 282 282 282 284 285 284 285 287 289 290 291 293 294 294 296 296 298 299 300 300 300 300 300
278 279 279 279 279 279 280 280 280 282 281 281 282 283 284 284 283 284 285 285 284 284 286 288 289 291 292 293 294 295 295 296 297 300 301 300 300 301